Juliana Airport, Sint Maarten

1:21 PM AST on June 27, 2017 (GMT -0400)
Princess Juliana International

Weather History for TNCM - August, 2013

Change the Weather History Date:

Wednesday, August 14, 2013

  Actual Average Record
Temperature  
Mean Temperature 86 °F -  
Max Temperature 89 °F 87 °F 91 °F (1998)
Min Temperature 82 °F 77 °F 75 °F (2008)
Cooling Degree Days 20    
Growing Degree Days 36 (Base 50)    
Moisture  
Dew Point 75 °F    
Average Humidity 70    
Maximum Humidity 79    
Minimum Humidity 53    
Precipitation  
Precipitation 0.00 in 0.15 in - ()
Sea Level Pressure  
Sea Level Pressure 30.01 in    
Wind  
Wind Speed 11 mph ()    
Max Wind Speed 15 mph    
Max Gust Speed -    
Visibility 9.4 miles    
Events      
Averages and records for this station are not official NWS values.
T = Trace of Precipitation, MM = Missing Value Source: Averaged Metar Reports

Daily Weather History Graph

Daily Weather History Graph

Search for Another Location

Airport or City:

Trip Planner

Search our weather history database for the weather conditions in past years. The results will help you decide how hot, cold, wet, or windy it might be!

Date:

Astronomy

Aug. 14, 2013 Rise Set
Actual Time 5:54 AM AST 6:39 PM AST
Civil Twilight 5:31 AM AST 7:02 PM AST
Nautical Twilight 5:05 AM AST 7:28 PM AST
Astronomical Twilight 4:38 AM AST 7:55 PM AST
Moon 12:36 PM AST (8/14) No Moon Set
Length of Visible Light 13h 30m
Length of Day
12h 44m
First Quarter, 52% of the Moon is Illuminated
Aug 14
First Quarter
Aug 20
Full
Aug 28
Last Quarter
Sep 5
New
Sep 12
First Quarter

Hourly Weather History & Observations

Time (AST) Temp. Heat Index Dew Point Humidity Pressure Visibility Wind Dir Wind Speed Gust Speed Precip Events Conditions
12:00 AM 82.4 °F 89.5 °F 75.2 °F 79% 30.01 in 6.2 mi East 11.5 mph - N/A   Partly Cloudy
1:00 AM 82.4 °F 89.5 °F 75.2 °F 79% 29.98 in 6.2 mi East 12.7 mph - N/A   Partly Cloudy
2:00 AM 83 °F - 75 °F 71% 29.99 in 19 mi East 11.5 mph - -   Partly Cloudy
2:00 AM 82.4 °F 89.5 °F 75.2 °F 79% 29.98 in 6.2 mi East 12.7 mph - N/A   Scattered Clouds
3:00 AM 82.4 °F 89.5 °F 75.2 °F 79% 29.98 in 6.2 mi East 12.7 mph - N/A   Partly Cloudy
4:00 AM 82.4 °F 89.5 °F 75.2 °F 79% 29.98 in 6.2 mi East 10.4 mph - N/A   Scattered Clouds
5:00 AM 83 °F - 74 °F 69% 29.99 in 19 mi East 12.7 mph - -   Partly Cloudy
5:00 AM 82.4 °F 89.5 °F 75.2 °F 79% 29.98 in 6.2 mi East 12.7 mph - N/A   Scattered Clouds
6:00 AM 82.4 °F 89.5 °F 75.2 °F 79% 29.98 in 6.2 mi East 12.7 mph - N/A   Scattered Clouds
7:00 AM 84.2 °F 92.3 °F 75.2 °F 74% 30.01 in 6.2 mi East 15.0 mph - N/A   Mostly Cloudy
8:00 AM 85 °F - 75 °F 65% 30.02 in 19 mi East 13.8 mph - -   Partly Cloudy
8:00 AM 84.2 °F 92.3 °F 75.2 °F 74% 30.01 in 6.2 mi East 13.8 mph - N/A   Scattered Clouds
9:00 AM 86.0 °F 95.1 °F 75.2 °F 70% 30.04 in 6.2 mi ESE 11.5 mph - N/A   Scattered Clouds
10:00 AM 86.0 °F 95.1 °F 75.2 °F 70% 30.04 in 6.2 mi ESE 12.7 mph - N/A   Scattered Clouds
11:00 AM 87 °F - 74 °F 58% 30.04 in 19 mi ESE 11.5 mph - -   Partly Cloudy
11:00 AM 87.8 °F 97.6 °F 75.2 °F 66% 30.04 in 6.2 mi ESE 11.5 mph - N/A   Scattered Clouds
12:00 PM 87.8 °F 95.6 °F 73.4 °F 62% 30.01 in 6.2 mi East 13.8 mph - N/A   Scattered Clouds
1:00 PM 87.8 °F 93.8 °F 71.6 °F 58% 30.01 in 6.2 mi ESE 11.5 mph - N/A   Scattered Clouds
2:00 PM 89 °F - 74 °F 53% 30.00 in 19 mi East 11.5 mph - -   Partly Cloudy
2:00 PM 89.6 °F 98.2 °F 73.4 °F 59% 29.98 in 6.2 mi East 11.5 mph - N/A   Scattered Clouds
3:00 PM 87.8 °F 95.6 °F 73.4 °F 62% 29.98 in 6.2 mi East 12.7 mph - N/A   Scattered Clouds
4:00 PM 87.8 °F 95.6 °F 73.4 °F 62% 29.98 in 6.2 mi East 12.7 mph - N/A   Scattered Clouds
5:00 PM 87 °F - 75 °F 60% 29.98 in 19 mi East 11.5 mph - -   Scattered Clouds
5:00 PM 87.8 °F 97.6 °F 75.2 °F 66% 29.98 in 6.2 mi East 11.5 mph - N/A   Partly Cloudy
6:00 PM 86.0 °F 95.1 °F 75.2 °F 70% 29.98 in 6.2 mi East 11.5 mph - N/A   Scattered Clouds
7:00 PM 84.2 °F 92.3 °F 75.2 °F 74% 30.01 in 6.2 mi East 10.4 mph - N/A   Scattered Clouds
8:00 PM 84 °F - 75 °F 67% 30.03 in 19 mi East 10.4 mph - -   Mostly Cloudy
8:00 PM 84.2 °F 92.3 °F 75.2 °F 74% 30.01 in 6.2 mi East 10.4 mph - N/A   Mostly Cloudy
9:00 PM 84.2 °F 92.3 °F 75.2 °F 74% 30.04 in 6.2 mi ENE 12.7 mph - N/A   Mostly Cloudy
10:00 PM 84.2 °F 92.3 °F 75.2 °F 74% 30.04 in 6.2 mi ENE 12.7 mph - N/A   Scattered Clouds
11:00 PM 84 °F - 75 °F 68% 30.05 in 19 mi ENE 11.5 mph - -   Partly Cloudy
11:00 PM 84.2 °F 92.3 °F 75.2 °F 74% 30.04 in 6.2 mi ENE 11.5 mph - N/A   Scattered Clouds